Radiation Dose at Monitoring Post of Fukushima Daini Nuclear Power Station
Date,Time,MP-1(microSv/h),MP-2(microSv/h),MP-3(microSv/h),MP-4(microSv/h),MP-5(microSv/h),MP-6(microSv/h),MP-7(microSv/h),Wind Direction,Wind Velocity(m/s),Rain
2018/10/14,00:00,0.305,0.188,0.305,0.292,0.281,0.153,0.093,north-northwest,4.8,No
2018/10/14,00:10,0.304,0.189,0.306,0.294,0.280,0.153,0.093,north,5.4,No
2018/10/14,00:20,0.305,0.188,0.306,0.293,0.279,0.153,0.093,north,5.1,No
2018/10/14,00:30,0.304,0.190,0.304,0.294,0.281,0.152,0.093,north,5.7,No
2018/10/14,00:40,0.304,0.188,0.306,0.294,0.280,0.153,0.093,north,5.6,No
2018/10/14,00:50,0.305,0.189,0.306,0.292,0.280,0.153,0.093,north,5.4,No
2018/10/14,01:00,0.304,0.189,0.305,0.293,0.281,0.152,0.093,north,5.7,No
2018/10/14,01:10,0.305,0.188,0.307,0.294,0.280,0.152,0.094,north-northwest,6.5,No
2018/10/14,01:20,0.305,0.188,0.305,0.292,0.282,0.152,0.094,north-northwest,6.7,No
2018/10/14,01:30,0.303,0.188,0.306,0.293,0.279,0.152,0.093,north-northwest,6.8,No
2018/10/14,01:40,0.305,0.188,0.306,0.293,0.281,0.153,0.093,north-northwest,6.1,No
2018/10/14,01:50,0.304,0.188,0.304,0.293,0.279,0.154,0.094,north-northwest,6.0,No
2018/10/14,02:00,0.305,0.188,0.306,0.294,0.280,0.152,0.093,north-northwest,6.4,No
2018/10/14,02:10,0.304,0.189,0.305,0.292,0.281,0.153,0.094,north-northwest,6.7,No
2018/10/14,02:20,0.304,0.189,0.305,0.293,0.278,0.153,0.094,north-northwest,6.4,No
2018/10/14,02:30,0.304,0.187,0.307,0.293,0.280,0.152,0.093,north-northwest,5.5,No
2018/10/14,02:40,0.304,0.188,0.305,0.293,0.279,0.152,0.094,north-northwest,5.1,No
2018/10/14,02:50,0.305,0.188,0.305,0.293,0.282,0.152,0.093,north-northwest,4.4,No
2018/10/14,03:00,0.303,0.189,0.305,0.292,0.279,0.153,0.094,north-northwest,6.0,No
2018/10/14,03:10,0.305,0.190,0.304,0.294,0.278,0.153,0.093,north-northwest,6.3,No
2018/10/14,03:20,0.305,0.188,0.306,0.293,0.281,0.151,0.094,north-northwest,7.2,No
2018/10/14,03:30,0.304,0.189,0.305,0.293,0.278,0.152,0.093,north,6.5,No
2018/10/14,03:40,0.306,0.188,0.306,0.294,0.282,0.152,0.094,north-northwest,7.3,No
2018/10/14,03:50,0.303,0.189,0.304,0.292,0.280,0.152,0.094,north,7.6,No
2018/10/14,04:00,0.305,0.189,0.304,0.293,0.279,0.152,0.093,north-northwest,6.9,No
2018/10/14,04:10,0.303,0.188,0.305,0.291,0.281,0.153,0.094,north-northwest,6.4,No
2018/10/14,04:20,0.306,0.188,0.304,0.292,0.280,0.152,0.094,north-northwest,6.2,No
2018/10/14,04:30,0.304,0.188,0.306,0.294,0.282,0.153,0.095,north-northwest,6.4,No
2018/10/14,04:40,0.304,0.188,0.305,0.292,0.278,0.152,0.093,north-northwest,6.3,No
2018/10/14,04:50,0.306,0.189,0.305,0.294,0.281,0.152,0.094,north-northwest,6.0,No
2018/10/14,05:00,0.304,0.189,0.307,0.292,0.279,0.153,0.093,north,5.3,No
2018/10/14,05:10,0.305,0.188,0.304,0.293,0.281,0.152,0.093,north-northwest,5.7,No
2018/10/14,05:20,0.305,0.189,0.306,0.293,0.279,0.153,0.094,north-northwest,4.1,No
2018/10/14,05:30,0.307,0.189,0.305,0.293,0.280,0.153,0.093,north,6.1,No
2018/10/14,05:40,0.304,0.189,0.305,0.292,0.279,0.153,0.095,north-northwest,5.8,No
2018/10/14,05:50,0.305,0.188,0.306,0.293,0.281,0.152,0.094,north,5.8,No
2018/10/14,06:00,0.304,0.189,0.304,0.294,0.280,0.152,0.094,north-northwest,5.1,No
2018/10/14,06:10,0.305,0.189,0.306,0.294,0.279,0.152,0.094,north,3.1,No
2018/10/14,06:20,0.305,0.189,0.305,0.294,0.281,0.152,0.093,north,4.3,No
2018/10/14,06:30,0.305,0.189,0.307,0.292,0.280,0.153,0.094,north,4.1,No
2018/10/14,06:40,0.306,0.189,0.304,0.293,0.282,0.152,0.093,north,3.0,No
2018/10/14,06:50,0.306,0.190,0.307,0.294,0.280,0.153,0.094,north,6.0,No
2018/10/14,07:00,0.305,0.189,0.307,0.292,0.281,0.153,0.094,north,5.1,No
2018/10/14,07:10,0.305,0.189,0.305,0.294,0.279,0.153,0.093,north,4.9,No
2018/10/14,07:20,0.305,0.188,0.306,0.292,0.281,0.152,0.094,north,2.9,No
2018/10/14,07:30,0.305,0.190,0.305,0.294,0.280,0.153,0.094,north,3.4,No
2018/10/14,07:40,0.307,0.189,0.308,0.293,0.280,0.152,0.093,north-northwest,5.3,No
2018/10/14,07:50,0.306,0.189,0.306,0.295,0.280,0.153,0.094,north-northwest,5.4,No
2018/10/14,08:00,0.306,0.190,0.307,0.294,0.282,0.152,0.093,north-northwest,5.5,No
2018/10/14,08:10,0.304,0.189,0.305,0.293,0.280,0.152,0.093,north-northwest,4.4,No
2018/10/14,08:20,0.306,0.188,0.306,0.293,0.280,0.153,0.093,northwest,3.7,No
2018/10/14,08:30,0.305,0.188,0.306,0.293,0.280,0.153,0.094,north-northwest,4.7,Yes
2018/10/14,08:40,0.308,0.189,0.307,0.295,0.281,0.153,0.094,north-northwest,6.0,Yes
2018/10/14,08:50,0.306,0.190,0.306,0.294,0.283,0.154,0.094,north-northwest,7.1,Yes
2018/10/14,09:00,0.306,0.190,0.306,0.294,0.280,0.153,0.095,north-northwest,6.7,No
2018/10/14,09:10,0.308,0.189,0.308,0.293,0.282,0.153,0.094,north-northwest,6.4,No
2018/10/14,09:20,0.306,0.189,0.304,0.293,0.279,0.154,0.093,north-northwest,6.2,No
2018/10/14,09:30,0.307,0.189,0.307,0.293,0.282,0.152,0.095,north-northwest,6.1,No
2018/10/14,09:40,0.306,0.188,0.305,0.293,0.279,0.153,0.094,north-northwest,6.0,No
2018/10/14,09:50,0.306,0.190,0.307,0.292,0.281,0.152,0.094,north-northwest,5.7,No
2018/10/14,10:00,0.306,0.189,0.305,0.294,0.281,0.153,0.093,north,5.1,No
2018/10/14,10:10,0.305,0.189,0.308,0.290,0.276,0.152,0.094,north-northwest,5.0,No
2018/10/14,10:20,0.305,0.190,0.303,0.294,0.281,0.152,0.094,north,3.8,No
2018/10/14,10:30,0.303,0.188,0.305,0.293,0.279,0.152,0.093,north,3.9,No
2018/10/14,10:40,0.305,0.189,0.303,0.291,0.278,0.153,0.094,north,3.8,No
2018/10/14,10:50,0.305,0.188,0.306,0.293,0.282,0.153,0.092,north,3.0,No
2018/10/14,11:00,0.304,0.188,0.306,0.292,0.277,0.154,0.094,north,2.8,No
2018/10/14,11:10,0.306,0.189,0.306,0.294,0.283,0.153,0.093,north,3.4,No
2018/10/14,11:20,0.306,0.189,0.306,0.292,0.280,0.152,0.093,north,3.4,No
2018/10/14,11:30,0.307,0.190,0.305,0.291,0.280,0.154,0.094,north,2.6,No
2018/10/14,11:40,0.305,0.189,0.307,0.296,0.283,0.152,0.094,north-northwest,3.3,No
2018/10/14,11:50,0.306,0.190,0.305,0.291,0.280,0.154,0.093,north-northwest,2.6,No
2018/10/14,12:00,0.306,0.189,0.305,0.294,0.281,0.153,0.094,north,2.4,No
2018/10/14,12:10,0.303,0.189,0.304,0.293,0.281,0.153,0.093,north,2.7,No
2018/10/14,12:20,0.306,0.190,0.307,0.292,0.278,0.153,0.093,north,2.4,No
2018/10/14,12:30,0.304,0.188,0.306,0.295,0.283,0.153,0.095,north-northeast,1.6,No
2018/10/14,12:40,0.305,0.189,0.305,0.292,0.280,0.153,0.094,north,1.6,No
2018/10/14,12:50,0.305,0.189,0.306,0.294,0.279,0.153,0.093,north,2.2,No
2018/10/14,13:00,0.304,0.188,0.306,0.294,0.282,0.152,0.093,north-northeast,3.0,No
2018/10/14,13:10,0.306,0.187,0.307,0.290,0.278,0.153,0.093,north,2.7,No
2018/10/14,13:20,0.304,0.189,0.304,0.295,0.281,0.153,0.093,north,3.1,No
2018/10/14,13:30,0.308,0.189,0.306,0.290,0.280,0.152,0.093,north,3.0,No
2018/10/14,13:40,0.304,0.187,0.305,0.294,0.278,0.154,0.093,north,3.1,No
2018/10/14,13:50,0.305,0.190,0.306,0.293,0.282,0.153,0.094,north-northeast,2.8,No
2018/10/14,14:00,0.308,0.188,0.306,0.293,0.279,0.152,0.093,north,2.2,No
2018/10/14,14:10,0.305,0.188,0.304,0.295,0.278,0.154,0.094,north-northeast,3.1,No
2018/10/14,14:20,0.306,0.189,0.306,0.292,0.282,0.153,0.092,north,2.9,No
2018/10/14,14:30,0.303,0.188,0.304,0.294,0.279,0.152,0.093,north,3.4,No
2018/10/14,14:40,0.307,0.189,0.308,0.293,0.280,0.152,0.093,north,2.8,No
2018/10/14,14:50,0.305,0.189,0.305,0.292,0.282,0.152,0.093,north,2.9,No
2018/10/14,15:00,0.307,0.190,0.306,0.295,0.279,0.153,0.093,north,2.3,No
2018/10/14,15:10,0.307,0.187,0.306,0.291,0.282,0.152,0.093,north-northeast,1.9,No
2018/10/14,15:20,0.304,0.189,0.305,0.293,0.279,0.151,0.094,north-northeast,1.2,No
2018/10/14,15:30,0.306,0.189,0.307,0.292,0.280,0.153,0.093,north-northeast,1.0,No
2018/10/14,15:40,0.305,0.189,0.305,0.293,0.282,0.153,0.094,north-northeast,1.1,No
2018/10/14,15:50,0.307,0.188,0.306,0.294,0.279,0.153,0.093,north,1.7,No
2018/10/14,16:00,0.304,0.190,0.304,0.293,0.282,0.152,0.092,north,1.9,No
2018/10/14,16:10,0.307,0.190,0.307,0.294,0.278,0.152,0.093,northwest,1.6,No
2018/10/14,16:20,0.306,0.189,0.304,0.292,0.281,0.152,0.093,north-northwest,2.4,No
2018/10/14,16:30,0.306,0.189,0.306,0.294,0.280,0.152,0.093,north,2.7,No
2018/10/14,16:40,0.305,0.188,0.305,0.293,0.282,0.153,0.094,north,3.5,No
2018/10/14,16:50,0.305,0.189,0.306,0.294,0.280,0.153,0.093,north,1.9,No
2018/10/14,17:00,0.306,0.189,0.306,0.293,0.281,0.153,0.094,north-northwest,1.1,No
2018/10/14,17:10,0.306,0.189,0.307,0.295,0.280,0.153,0.094,north,2.3,No
2018/10/14,17:20,0.307,0.190,0.306,0.292,0.282,0.153,0.093,north,2.4,No
2018/10/14,17:30,0.307,0.189,0.308,0.294,0.282,0.153,0.093,north,2.1,No
2018/10/14,17:40,0.306,0.190,0.307,0.294,0.282,0.154,0.093,northwest,1.3,No
2018/10/14,17:50,0.307,0.190,0.306,0.295,0.281,0.154,0.094,-,CALM,No
2018/10/14,18:00,0.306,0.190,0.305,0.294,0.281,0.152,0.094,-,CALM,No
2018/10/14,18:10,0.307,0.188,0.307,0.293,0.281,0.153,0.094,-,CALM,No
2018/10/14,18:20,0.306,0.189,0.306,0.296,0.282,0.152,0.094,-,CALM,No
2018/10/14,18:30,0.307,0.190,0.306,0.293,0.280,0.152,0.094,-,CALM,No
2018/10/14,18:40,0.306,0.190,0.306,0.295,0.282,0.153,0.093,-,CALM,No
2018/10/14,18:50,0.308,0.189,0.307,0.294,0.282,0.154,0.093,-,CALM,No
2018/10/14,19:00,0.306,0.189,0.307,0.295,0.283,0.152,0.094,-,CALM,No
2018/10/14,19:10,0.308,0.189,0.304,0.293,0.279,0.153,0.094,-,CALM,No
2018/10/14,19:20,0.305,0.189,0.307,0.295,0.283,0.153,0.093,-,CALM,No
2018/10/14,19:30,0.307,0.189,0.306,0.292,0.279,0.153,0.094,-,CALM,No
2018/10/14,19:40,0.304,0.189,0.308,0.294,0.282,0.153,0.094,-,CALM,No
2018/10/14,19:50,0.306,0.189,0.306,0.293,0.279,0.153,0.094,-,CALM,No
2018/10/14,20:00,0.305,0.191,0.308,0.293,0.282,0.154,0.093,-,CALM,No
2018/10/14,20:10,0.307,0.189,0.306,0.294,0.279,0.153,0.094,-,CALM,No
2018/10/14,20:20,0.306,0.190,0.306,0.293,0.282,0.153,0.093,west-southwest,0.9,No
2018/10/14,20:30,0.305,0.191,0.307,0.294,0.280,0.153,0.094,-,CALM,No
2018/10/14,20:40,0.305,0.188,0.307,0.294,0.281,0.153,0.093,-,CALM,No
2018/10/14,20:50,0.305,0.190,0.306,0.295,0.280,0.152,0.094,-,CALM,No
2018/10/14,21:00,0.306,0.190,0.305,0.293,0.281,0.154,0.094,-,CALM,No
2018/10/14,21:10,0.305,0.189,0.308,0.295,0.281,0.153,0.093,-,CALM,No
2018/10/14,21:20,0.306,0.190,0.305,0.294,0.282,0.153,0.094,-,CALM,No
2018/10/14,21:30,0.307,0.189,0.307,0.293,0.281,0.152,0.094,-,CALM,No
2018/10/14,21:40,0.308,0.190,0.306,0.295,0.280,0.153,0.093,-,CALM,No
2018/10/14,21:50,0.307,0.189,0.308,0.294,0.283,0.153,0.093,-,CALM,No
2018/10/14,22:00,0.307,0.189,0.306,0.295,0.279,0.153,0.093,-,CALM,No
2018/10/14,22:10,0.307,0.189,0.305,0.292,0.282,0.153,0.093,-,CALM,No
2018/10/14,22:20,0.304,0.189,0.307,0.294,0.280,0.153,0.094,-,CALM,No
2018/10/14,22:30,0.306,0.189,0.306,0.294,0.282,0.153,0.094,-,CALM,No
2018/10/14,22:40,0.306,0.190,0.306,0.294,0.280,0.153,0.094,-,CALM,No
2018/10/14,22:50,0.306,0.189,0.306,0.294,0.280,0.152,0.093,-,CALM,No
2018/10/14,23:00,0.305,0.191,0.306,0.293,0.283,0.154,0.094,west,0.8,No
2018/10/14,23:10,0.306,0.189,0.308,0.295,0.280,0.152,0.094,-,CALM,No
2018/10/14,23:20,0.306,0.189,0.305,0.294,0.281,0.153,0.094,-,CALM,No
2018/10/14,23:30,0.306,0.189,0.308,0.294,0.280,0.152,0.094,west,0.7,No
2018/10/14,23:40,0.307,0.189,0.306,0.293,0.282,0.153,0.094,-,CALM,No
2018/10/14,23:50,0.306,0.189,0.307,0.292,0.282,0.153,0.094,south-southwest,1.6,No
